Vorticity
4 9 3 2 5 4 5 4 4 4 6 6 5 7 9 6 2 2 3 4 4 4 6 5 4 4 5 6 7 8 8 9 9 8 7 7 8 9 9 9 8 8 9 8 7 7 8 7 7 8 8 8 8 8 8 8 8 8 8 9 8 8 8 8 7 7 7 7 7 8 8 8 8 8 8 9 11 11 11 11 10 9 7 8 8 8 8 8
3 6 3 3 7 4 5 5 6 6 7 8 6 7 5 3 4 5 5 4 4 5 6 6 6 6 7 8 8 9 8 8 8 8 8 8 8 8 8 7 7 6 6 6 6 7 7 7 7 7 7 7 7 7 7 7 7 7 8 7 7 7 7 7 7 7 7 7 7 8 8 7 7 7 7 8 9 10 13 13 11 12 11 10 9 8 9 9
2 1 1 3 7 6 8 8 7 5 4 5 4 4 4 6 6 6 6 5 5 6 6 7 7 8 9 9 9 9 9 9 10 10 9 8 8 7 7 6 7 7 7 7 7 7 7 7 7 7 7 7 7 7 7 8 8 8 8 8 8 9 9 9 8 9 9 9 9 9 8 8 8 8 9 9 9 9 9 8 8 10 12 12 12 11 10 10
2 3 6 6 5 5 7 5 7 8 2 0 1 2 5 6 5 5 5 5 6 7 8 8 8 9 11 11 11 11 11 11 11 10 9 9 8 8 8 8 8 8 8 7 7 8 7 7 7 7 7 8 8 7 7 7 7 8 8 8 9 9 8 9 10 11 11 11 10 10 10 10 10 10 10 10 9 8 7 6 6 6 6 6 7 8 8 8
3 -1 1 4 4 2 4 5 9 9 1 -0 3 4 5 6 7 6 6 7 8 8 9 9 10 11 11 11 11 10 10 10 9 8 9 9 9 9 8 8 7 7 7 7 7 7 7 7 7 7 7 8 8 8 8 7 8 9 9 8 8 8 9 10 10 10 9 8 8 8 8 8 7 7 6 6 5 3 3 4 4 4 4 4 3 3 3 3
14 11 12 12 8 4 6 7 8 7 2 3 4 5 7 8 8 7 9 9 10 11 11 11 11 10 10 10 9 9 9 8 8 8 9 9 9 8 7 7 7 7 7 7 8 8 8 8 8 8 8 9 9 9 9 9 10 10 10 10 9 9 9 8 6 5 5 5 5 4 4 4 3 3 2 4 3 2 4 5 5 5 5 5 5 5 5 5
22 27 30 23 13 7 7 6 7 6 4 6 7 9 9 8 9 10 11 11 11 11 10 10 10 9 9 9 9 9 9 8 9 8 8 7 7 7 7 7 8 8 8 7 8 8 8 8 9 9 9 10 9 9 9 9 8 8 8 7 6 5 4 3 3 3 4 3 2 3 3 3 4 4 5 7 4 3 6 6 6 6 6 7 8 8 8 8
10 14 15 11 8 7 6 5 6 6 8 12 11 9 8 10 12 11 10 9 8 7 7 8 7 7 7 6 7 7 7 7 7 7 6 7 7 7 7 7 8 7 7 8 8 8 9 9 9 9 9 9 7 7 7 5 5 5 4 3 2 3 3 4 3 3 2 2 2 4 5 5 5 5 6 6 4 6 7 6 7 8 8 8 8 8 8 8
8 8 7 7 7 7 6 7 9 10 11 10 8 7 8 10 9 7 7 5 6 6 6 6 5 6 6 6 6 6 6 5 6 7 6 7 7 7 7 7 8 7 8 8 8 8 8 8 7 7 7 5 4 5 3 3 3 3 3 3 4 4 5 4 3 3 4 4 5 6 6 7 7 8 8 7 7 10 10 10 12 11 11 11 11 11 10 10
8 7 8 7 8 8 8 9 9 9 8 7 8 8 8 7 6 6 5 5 6 6 6 6 6 6 6 6 6 6 5 5 7 7 7 8 8 8 8 8 9 9 9 8 8 7 7 6 5 4 4 3 3 3 2 3 4 4 5 6 6 5 5 6 6 6 7 8 9 9 10 12 12 10 10 9 10 12 12 12 12 11 11 11 11 11 11 12
6 7 7 6 8 8 7 7 8 9 9 9 8 6 6 5 6 5 5 6 6 6 6 6 6 6 6 6 6 7 7 8 8 8 9 9 9 9 9 9 9 8 8 7 6 5 5 4 3 3 3 3 4 4 5 6 6 6 6 6 6 7 9 10 10 11 11 12 11 11 14 16 14 13 14 14 14 14 13 13 12 11 11 10 10 11 11 12
7 6 5 6 6 6 7 9 10 10 7 6 5 5 6 5 5 5 6 7 7 7 7 6 6 6 6 7 7 8 8 9 9 8 9 8 9 8 8 8 7 7 6 4 4 3 3 3 4 5 4 5 5 6 7 7 6 7 7 8 10 11 11 10 10 11 12 13 14 18 20 18 18 20 20 19 19 18 16 15 15 14 14 15 15 14 13 12
7 6 7 8 7 9 11 10 7 5 4 4 5 5 6 5 6 7 7 7 6 6 6 6 7 6 7 8 8 8 8 8 8 8 8 8 8 7 7 7 5 6 5 4 4 4 5 5 6 6 6 7 8 8 8 8 9 9 10 10 11 11 11 13 16 18 19 21 23 23 21 18 16 16 17 17 17 17 16 16 16 17 16 17 17 16 16 15
8 8 9 9 10 11 9 6 4 3 5 4 5 5 6 7 7 7 7 6 5 5 6 6 7 7 8 8 8 9 8 8 8 8 7 7 7 6 6 5 5 6 6 6 6 7 7 7 8 8 9 10 10 10 10 11 11 11 12 15 18 20 21 24 25 24 22 21 18 14 16 18 11 7 8 11 12 12 14 12 11 14 14 14 15 15 15 14
8 9 10 10 10 9 6 4 3 4 4 4 5 5 5 6 6 7 6 5 6 5 6 7 7 8 9 8 8 9 8 7 7 6 5 5 5 5 5 6 7 6 7 8 8 8 8 9 10 11 11 12 12 13 15 16 18 22 25 27 28 26 22 21 19 16 13 11 8 7 10 12 7 3 4 5 7 7 7 6 5 6 7 8 9 11 11 11
8 9 11 11 8 7 5 4 4 4 4 4 4 4 5 6 6 6 5 6 6 6 8 8 7 9 9 8 7 7 7 6 5 5 5 5 5 6 7 7 7 7 8 9 9 10 11 13 14 16 18 19 22 24 25 26 26 26 24 20 16 12 11 9 8 8 6 4 4 4 6 6 4 2 3 3 3 4 4 5 4 3 4 6 7 8 7 6
7 8 11 11 9 7 6 5 5 4 5 5 4 4 5 5 6 6 6 7 6 7 9 8 9 9 8 7 7 6 5 5 5 5 6 6 7 7 8 7 7 9 9 10 11 12 14 17 19 22 25 26 26 24 21 18 15 12 8 6 5 4 4 4 4 4 3 3 2 2 4 4 3 2 4 4 0 2 3 2 3 2 3 5 7 7 5 4
7 8 10 10 10 8 6 6 5 5 6 5 4 4 4 5 7 7 6 7 8 10 9 7 9 8 7 7 6 5 5 5 5 6 6 7 8 7 7 8 9 9 10 11 12 13 16 19 21 22 21 18 15 11 8 6 4 4 3 3 4 4 2 1 3 3 2 4 3 2 4 4 3 3 5 5 1 1 2 2 3 3 4 6 7 7 7 7
6 8 8 8 9 8 7 6 5 6 6 5 4 4 4 6 6 6 7 9 10 10 7 7 8 6 6 6 5 5 6 6 6 7 8 8 7 7 9 9 9 10 11 12 12 14 16 16 15 12 9 7 5 3 3 3 2 3 2 2 2 4 3 0 1 1 -1 2 4 4 7 6 5 4 5 7 7 7 8 10 11 10 10 10 9 9 10 10
6 7 7 7 8 8 8 7 6 7 5 6 4 3 5 6 6 7 9 10 9 8 7 7 6 5 6 5 5 6 7 6 6 8 9 8 8 9 9 9 10 11 11 11 12 13 12 9 6 4 4 3 2 2 2 3 2 2 3 2 1 2 5 4 3 5 3 5 9 10 12 14 15 13 12 15 16 16 16 16 15 15 15 14 13 12 11 11
6 7 7 8 8 8 8 7 7 6 6 6 4 4 5 5 6 8 9 9 7 6 6 6 6 5 5 5 6 6 6 6 6 9 9 8 9 9 9 10 11 9 9 10 10 9 6 4 4 4 4 3 3 3 2 3 4 3 4 4 5 6 10 12 11 14 13 12 15 15 18 20 19 18 17 16 17 17 17 16 16 16 15 14 14 13 12 12
7 7 7 8 9 9 8 7 7 6 6 6 4 5 5 5 7 9 10 9 6 5 6 7 5 4 5 7 7 6 6 6 7 9 8 7 8 8 9 11 10 8 9 9 8 8 6 5 6 5 6 6 7 7 7 8 9 11 11 12 14 13 14 17 16 17 16 13 13 13 15 15 14 14 12 10 11 12 12 12 11 11 11 13 13 13 13 14
8 7 7 8 9 9 9 8 6 6 6 5 5 6 5 6 9 10 10 8 5 5 6 7 5 5 8 8 6 5 6 6 8 8 7 7 8 9 11 10 9 9 9 10 10 10 10 10 10 10 11 11 12 13 13 13 13 14 14 14 14 12 10 11 12 13 12 10 8 7 11 13 11 10 10 8 9 9 9 8 8 8 9 11 11 12 13 14
6 7 7 8 9 9 9 8 7 7 7 6 6 5 5 8 10 10 8 6 5 5 6 7 6 6 8 8 6 5 6 7 8 7 7 9 10 11 11 10 11 12 12 12 13 13 13 13 13 13 14 13 13 13 12 12 11 10 11 11 10 9 8 7 6 9 10 10 9 6 8 10 10 9 10 11 10 8 8 7 7 8 8 8 9 11 12 13
4 7 7 8 10 9 9 8 7 6 6 6 5 5 7 9 10 9 7 6 5 5 6 7 6 6 9 7 3 4 7 7 7 8 10 11 12 12 12 13 14 13 14 13 11 11 12 12 11 11 11 10 9 9 8 9 9 9 9 8 8 7 8 8 6 6 7 9 10 10 9 7 8 9 9 9 9 7 7 6 6 7 8 9 10 11 11 9
4 7 7 9 10 9 9 8 7 6 6 6 5 6 8 9 9 8 6 5 4 6 7 6 6 7 9 4 1 7 8 6 9 11 12 13 13 12 12 13 11 10 11 9 8 8 8 9 9 7 7 8 7 7 7 6 6 8 7 7 8 6 6 7 6 6 6 6 8 10 10 8 7 9 9 10 8 5 5 6 6 7 8 9 9 8 7 6
4 6 7 9 10 10 9 8 7 7 6 5 5 7 8 10 10 8 7 6 5 8 9 6 5 7 7 3 3 8 7 8 13 13 13 13 12 11 10 9 8 7 8 8 7 6 6 7 7 5 6 7 6 6 6 6 5 6 7 7 7 6 6 6 5 6 5 6 7 7 8 8 9 11 9 9 8 5 5 7 7 7 7 5 4 4 6 7
4 6 7 9 11 10 9 8 8 6 5 5 5 7 8 11 10 7 8 7 5 7 7 6 7 6 5 3 5 7 7 12 15 12 12 11 8 8 7 7 6 4 6 6 4 4 4 5 5 4 4 5 5 5 6 5 5 6 6 7 7 6 6 5 6 6 5 6 7 6 6 7 10 13 10 5 5 6 7 7 7 7 7 2 -1 -0 5 8
4 7 7 8 11 12 10 8 7 5 5 5 5 7 10 11 10 7 6 6 4 5 6 8 8 5 3 5 6 7 10 14 14 10 10 9 6 6 5 5 4 3 4 4 4 5 4 4 5 3 3 5 4 4 5 4 5 6 6 6 7 6 4 6 7 5 5 6 5 5 6 7 9 9 6 5 6 8 8 8 8 8 6 1 -1 1 4 5
3 6 7 7 10 12 11 7 6 6 5 5 6 8 11 11 8 6 6 6 4 4 7 9 7 4 4 5 5 8 12 14 13 10 8 6 5 4 4 4 3 3 4 3 4 5 3 5 5 2 3 4 2 3 5 3 4 6 5 6 6 4 5 7 6 4 6 5 4 4 4 6 10 5 2 7 10 9 7 6 6 4 3 2 1 3 4 4
1 4 6 7 9 11 11 8 7 7 5 6 7 9 12 11 7 6 6 4 4 6 8 7 4 4 5 5 6 10 14 13 11 8 5 5 5 3 4 4 3 3 3 2 3 3 4 5 5 3 4 4 1 3 3 1 4 6 5 5 4 4 6 6 5 5 6 4 3 5 3 6 10 5 3 6 6 7 8 9 6 1 -0 1 3 5 5 4
-2 1 5 6 8 10 11 9 7 6 6 6 7 10 12 10 6 6 4 4 6 7 6 5 5 4 5 6 7 10 12 11 8 6 4 4 3 3 3 3 3 3 2 3 2 3 4 4 4 4 4 4 2 2 3 2 3 5 6 4 2 5 6 4 5 5 4 3 3 4 5 7 8 6 5 4 4 8 11 10 7 3 3 4 6 7 5 4
-1 -1 2 6 8 9 10 9 8 7 6 6 8 11 12 9 6 5 5 6 7 5 4 7 6 4 6 7 7 9 10 9 7 5 4 3 3 4 4 3 4 2 2 3 2 3 4 3 4 3 3 4 2 2 4 1 2 7 6 2 4 7 3 2 5 4 3 4 4 5 7 7 7 7 6 5 7 10 9 7 6 6 8 8 7 6 5 6
1 -2 1 5 8 9 9 8 7 7 6 7 10 12 12 9 6 5 7 7 5 5 7 7 4 5 7 6 6 8 8 7 6 5 4 4 3 4 4 4 4 3 2 2 2 2 3 3 3 3 4 4 3 4 4 1 4 7 4 4 8 7 2 2 5 3 3 5 6 7 7 5 6 7 7 8 10 8 6 6 7 7 8 6 5 6 6 7
4 0 1 5 8 9 9 8 7 7 7 8 10 12 12 8 5 6 7 5 5 7 7 4 4 7 8 6 6 7 6 6 6 4 3 4 3 4 4 4 4 3 1 2 2 2 1 3 4 3 3 4 4 4 4 3 5 5 5 7 7 5 5 5 4 3 4 6 6 7 6 4 5 7 10 10 8 5 5 7 7 6 5 5 5 6 6 6
5 3 1 4 8 8 9 8 8 7 7 9 12 13 10 7 5 5 5 5 5 6 6 4 5 7 6 5 6 5 4 5 6 4 3 3 3 4 4 4 4 2 1 1 2 1 1 2 4 3 3 4 4 3 5 6 5 5 7 7 5 6 8 5 3 5 6 5 5 6 6 5 6 9 9 7 4 6 8 8 5 4 4 5 5 4 5 7
4 3 0 4 8 9 8 9 8 8 8 10 13 13 9 7 6 6 5 6 5 6 6 5 6 6 5 5 5 5 4 5 5 3 2 3 3 4 4 4 4 2 1 1 2 1 1 1 3 3 3 4 3 4 6 6 7 7 7 7 6 6 7 6 5 7 7 6 6 6 6 6 8 10 7 4 6 8 7 4 2 4 5 5 6 7 9 10
4 2 1 5 9 9 9 9 8 7 8 12 14 12 9 7 5 5 6 6 6 6 6 6 6 5 5 5 6 5 4 5 4 1 3 4 3 4 5 3 3 2 2 2 2 1 1 1 2 2 2 4 3 3 5 7 8 7 7 8 8 6 6 7 7 8 9 8 6 5 7 8 10 10 8 8 8 5 3 4 6 8 9 10 11 11 10 9
3 1 2 7 10 9 9 8 8 8 10 13 14 11 9 7 6 6 6 6 6 5 6 7 6 4 5 6 6 5 5 6 4 2 4 4 3 5 4 2 3 3 2 2 1 1 1 2 2 2 3 5 3 3 6 8 6 6 9 9 7 7 8 7 8 10 11 9 6 4 5 7 11 14 13 10 6 5 8 10 11 11 11 11 10 8 7 6
2 2 4 7 10 10 8 8 9 9 10 12 13 11 9 7 7 6 6 6 5 6 6 5 5 5 6 6 6 5 5 5 4 3 4 3 4 5 3 2 2 2 2 2 1 2 2 1 1 3 5 5 4 5 6 7 6 7 9 8 8 10 9 8 9 12 11 9 7 4 1 7 18 19 12 8 7 11 13 11 11 10 9 8 7 6 6 6
1 3 5 6 9 9 8 9 9 9 11 12 11 11 8 7 7 6 6 5 5 6 6 5 6 7 6 6 6 5 5 5 5 4 3 4 4 4 2 2 2 2 2 1 2 3 2 2 2 4 5 4 5 6 4 5 8 7 7 9 11 11 10 9 8 10 10 6 7 6 -2 9 25 18 7 8 11 11 10 8 8 8 7 7 7 7 7 7
3 4 5 5 6 7 8 9 9 10 12 11 10 10 8 7 7 6 6 5 6 6 5 5 6 6 6 6 5 5 5 6 5 4 4 4 4 3 3 2 1 2 1 1 3 3 2 2 2 2 5 6 6 6 4 6 7 7 9 13 13 11 11 9 6 7 6 5 11 9 -2 10 24 13 5 9 9 6 7 7 8 7 7 8 7 8 8 8
9 9 9 8 7 6 7 9 9 10 11 11 11 10 8 7 7 7 6 5 6 5 4 5 6 6 6 5 6 6 5 5 5 4 3 4 3 2 2 2 2 2 2 2 4 3 2 3 1 1 4 6 6 5 4 6 7 9 12 13 11 10 9 7 5 5 4 9 16 9 3 14 18 6 5 8 6 6 8 7 7 7 8 8 7 8 8 8
15 16 16 15 12 9 8 9 9 10 11 11 11 9 7 7 7 7 5 4 5 5 5 6 6 6 6 4 6 6 4 4 5 3 3 3 2 2 1 2 2 2 2 3 3 3 3 3 3 3 4 5 6 6 6 7 9 12 14 12 11 10 7 6 7 6 8 14 14 9 10 14 8 3 6 7 6 8 8 7 8 8 8 7 7 7 8 7
17 18 18 18 16 12 10 9 10 11 11 11 10 8 6 7 7 7 6 5 6 5 6 6 6 6 5 4 6 6 4 4 3 2 3 2 1 1 1 2 2 2 3 3 3 3 2 4 5 5 5 6 8 9 9 10 13 16 17 15 12 10 8 8 10 11 14 14 11 12 12 7 5 7 7 6 7 8 7 8 9 8 8 7 6 7 7 6
16 17 17 18 16 13 10 9 10 11 11 11 10 7 7 8 8 7 7 6 6 5 6 7 7 5 4 4 6 5 4 4 2 1 2 2 1 1 1 3 3 3 4 3 4 3 1 4 6 5 6 8 9 10 9 10 14 14 13 13 11 8 7 10 13 16 16 10 7 10 6 2 7 9 5 6 9 7 7 8 7 8 8 6 5 6 5 5
15 15 16 16 14 11 10 10 11 12 10 10 9 7 6 8 8 7 6 6 5 5 6 7 5 3 3 4 5 5 5 4 2 1 2 1 1 1 2 3 3 4 5 3 3 3 1 4 7 5 7 10 10 11 12 11 11 10 10 11 9 7 11 14 15 14 10 5 5 7 4 3 8 7 4 7 7 6 8 7 6 7 6 4 5 6 6 6
11 12 13 12 11 11 10 10 11 11 10 9 8 7 6 7 8 7 6 5 5 5 6 6 3 2 5 5 4 4 4 3 2 2 2 2 2 2 3 4 4 4 4 2 3 4 2 5 7 6 7 12 14 14 13 9 7 9 11 11 11 13 16 14 11 8 4 3 5 6 5 6 8 5 5 7 5 5 7 6 6 8 6 5 6 6 6 6
9 10 10 9 10 11 11 11 12 11 10 9 7 6 6 7 8 8 6 5 6 5 5 6 4 3 6 5 3 4 3 1 2 2 2 2 2 3 3 4 4 3 3 3 4 4 4 6 8 6 7 15 18 13 9 7 6 9 12 13 15 17 15 10 7 5 4 4 6 5 5 7 7 5 5 7 5 5 6 6 7 7 6 5 5 5 6 6
8 9 9 9 10 10 10 11 12 11 10 9 7 6 6 7 8 8 6 4 5 5 4 6 5 4 5 4 4 4 1 0 2 2 2 3 3 4 4 4 4 2 3 4 4 7 8 7 8 9 11 17 17 8 6 8 6 9 15 18 18 14 9 6 5 4 4 5 5 5 5 7 7 5 6 6 5 6 6 6 6 6 5 4 5 6 7 7
8 8 8 9 10 11 11 11 11 11 10 8 7 6 6 7 8 8 6 4 5 6 4 5 5 4 5 4 4 3 1 1 3 2 2 3 3 4 4 3 3 3 4 6 7 9 9 8 12 13 12 14 12 8 8 8 6 13 21 20 14 9 6 5 4 4 4 5 5 6 6 6 6 6 6 6 5 5 5 5 6 6 5 5 6 7 8 9
8 8 8 8 10 10 11 11 9 8 7 6 6 6 7 8 8 7 7 4 4 5 4 4 5 4 5 4 3 3 2 2 2 2 3 4 4 4 4 3 3 4 7 9 8 9 11 13 16 13 9 10 12 11 8 6 10 19 21 14 8 7 5 4 3 4 5 5 6 7 6 6 6 6 5 4 4 5 5 6 7 6 5 7 8 8 9 11
Height
5786 5787 5789 5790 5792 5792 5793 5795 5796 5797 5798 5799 5800 5800 5801 5802 5803 5803 5804 5805 5805 5806 5806 5806 5806 5805 5805 5805 5805 5804 5804 5803 5804 5803 5802 5801 5801 5800 5799 5798 5798 5797 5796 5795 5794 5793 5793 5792 5791 5791 5790 5790 5789 5788 5787 5787 5786 5785 5785 5784 5783 5782 5781 5780 5779 5778 5778 5777 5776 5776 5775 5774 5773 5772 5772 5772 5771 5770 5770 5769 5767 5766 5765 5763 5762 5762 5761 5760
5785 5787 5788 5790 5791 5792 5793 5794 5796 5797 5798 5799 5799 5800 5801 5802 5803 5803 5804 5805 5805 5805 5805 5805 5804 5804 5804 5804 5803 5803 5802 5802 5802 5801 5801 5800 5799 5798 5798 5797 5796 5795 5794 5793 5793 5792 5791 5790 5790 5789 5788 5788 5787 5786 5785 5785 5784 5783 5783 5782 5781 5780 5779 5778 5776 5776 5775 5774 5773 5772 5772 5771 5770 5769 5768 5768 5767 5767 5767 5765 5764 5763 5762 5760 5759 5759 5758 5757
5785 5786 5788 5789 5791 5792 5793 5794 5795 5796 5797 5798 5799 5800 5801 5802 5803 5803 5804 5804 5804 5804 5804 5803 5803 5803 5803 5803 5802 5802 5801 5801 5801 5800 5800 5799 5798 5797 5796 5795 5795 5794 5793 5792 5792 5791 5790 5789 5788 5787 5787 5786 5786 5784 5784 5783 5782 5781 5780 5779 5778 5777 5776 5775 5774 5774 5773 5772 5771 5770 5769 5768 5767 5766 5765 5764 5764 5763 5762 5761 5759 5759 5758 5757 5757 5756 5755 5755
5784 5786 5788 5789 5790 5792 5793 5794 5795 5796 5797 5798 5799 5800 5801 5802 5802 5803 5803 5803 5803 5803 5803 5802 5802 5802 5802 5802 5801 5800 5800 5800 5800 5799 5798 5798 5797 5796 5795 5794 5793 5793 5792 5791 5791 5790 5789 5788 5787 5786 5785 5785 5784 5783 5782 5781 5780 5779 5778 5777 5776 5775 5774 5773 5772 5771 5771 5770 5769 5768 5767 5766 5764 5763 5763 5762 5761 5760 5758 5756 5756 5755 5755 5754 5753 5753 5752 5751
5784 5786 5787 5789 5790 5792 5793 5794 5794 5795 5797 5798 5799 5800 5801 5801 5802 5802 5802 5802 5802 5802 5802 5802 5801 5801 5801 5800 5800 5800 5799 5799 5799 5798 5797 5796 5796 5795 5794 5793 5792 5792 5791 5790 5789 5789 5788 5786 5785 5784 5783 5783 5782 5781 5780 5779 5778 5777 5776 5775 5774 5773 5772 5771 5770 5769 5768 5767 5766 5765 5765 5764 5763 5762 5761 5760 5758 5757 5755 5754 5753 5752 5751 5750 5749 5749 5748 5747
5784 5786 5787 5788 5790 5792 5793 5794 5795 5796 5797 5798 5799 5800 5800 5801 5801 5801 5801 5801 5801 5801 5801 5801 5800 5800 5800 5800 5799 5799 5798 5798 5797 5796 5796 5795 5794 5793 5793 5792 5791 5790 5790 5789 5788 5787 5786 5785 5784 5783 5782 5781 5780 5779 5778 5777 5776 5775 5775 5773 5772 5771 5771 5769 5768 5767 5766 5765 5764 5763 5762 5761 5760 5759 5758 5757 5755 5753 5752 5751 5750 5749 5748 5747 5745 5744 5744 5743
5785 5787 5788 5789 5791 5792 5794 5794 5795 5796 5798 5798 5799 5800 5800 5800 5801 5801 5801 5801 5800 5800 5800 5800 5799 5799 5799 5799 5798 5798 5797 5797 5796 5795 5794 5793 5793 5792 5791 5790 5790 5789 5788 5787 5787 5786 5785 5784 5783 5782 5781 5780 5779 5777 5776 5775 5775 5774 5773 5772 5771 5769 5768 5767 5766 5764 5763 5762 5760 5759 5758 5757 5756 5756 5755 5754 5751 5750 5750 5749 5747 5746 5744 5743 5742 5741 5739 5738
5786 5788 5789 5791 5792 5793 5794 5795 5796 5797 5798 5799 5799 5799 5799 5800 5800 5800 5800 5800 5800 5799 5799 5799 5798 5798 5798 5797 5797 5797 5796 5796 5795 5794 5793 5792 5792 5791 5790 5789 5788 5788 5787 5786 5785 5784 5783 5782 5782 5781 5780 5778 5777 5776 5775 5774 5773 5772 5771 5770 5769 5767 5766 5764 5763 5761 5760 5759 5757 5756 5755 5753 5752 5752 5751 5749 5747 5746 5746 5744 5743 5742 5741 5739 5738 5737 5735 5734
5787 5789 5790 5791 5792 5793 5794 5795 5796 5797 5798 5798 5799 5799 5799 5800 5800 5800 5799 5799 5799 5798 5798 5798 5797 5797 5797 5796 5796 5796 5795 5794 5794 5793 5792 5791 5791 5790 5789 5788 5787 5786 5785 5785 5784 5783 5782 5781 5780 5779 5778 5777 5775 5774 5774 5772 5772 5771 5770 5769 5767 5765 5764 5762 5760 5759 5757 5756 5754 5753 5751 5750 5749 5748 5746 5744 5742 5742 5741 5740 5739 5738 5737 5735 5734 5733 5731 5730
5788 5789 5790 5791 5792 5793 5794 5795 5795 5796 5797 5798 5798 5799 5799 5799 5799 5799 5798 5798 5798 5798 5797 5797 5796 5796 5796 5795 5795 5795 5794 5793 5792 5791 5791 5790 5789 5789 5788 5787 5786 5785 5784 5783 5782 5781 5781 5779 5778 5777 5776 5775 5773 5772 5771 5770 5769 5768 5767 5766 5764 5763 5761 5760 5758 5756 5754 5753 5751 5750 5748 5746 5744 5743 5742 5740 5739 5738 5737 5736 5735 5733 5732 5731 5730 5728 5727 5726
5788 5789 5790 5791 5792 5793 5794 5795 5795 5796 5797 5798 5798 5798 5798 5798 5798 5798 5798 5797 5797 5797 5797 5796 5796 5795 5795 5794 5794 5793 5792 5792 5791 5790 5790 5789 5788 5788 5787 5786 5785 5784 5783 5782 5781 5780 5779 5778 5776 5775 5774 5772 5771 5770 5769 5767 5766 5765 5764 5762 5761 5759 5758 5756 5754 5752 5751 5749 5747 5746 5745 5742 5740 5739 5737 5736 5735 5734 5733 5732 5730 5729 5727 5726 5725 5724 5723 5722
5788 5789 5790 5791 5792 5793 5794 5795 5796 5796 5797 5797 5797 5797 5797 5797 5797 5797 5797 5797 5796 5796 5796 5796 5795 5795 5794 5794 5793 5792 5791 5791 5790 5789 5789 5788 5787 5786 5785 5784 5783 5782 5782 5780 5779 5778 5777 5776 5774 5773 5771 5770 5769 5767 5766 5765 5763 5762 5761 5759 5757 5756 5754 5752 5750 5749 5747 5745 5743 5742 5742 5740 5737 5735 5734 5733 5732 5731 5730 5728 5726 5725 5723 5723 5722 5721 5720 5718
5789 5790 5791 5792 5793 5793 5794 5795 5796 5796 5796 5797 5797 5797 5797 5797 5797 5797 5797 5796 5796 5796 5795 5795 5794 5794 5793 5793 5792 5791 5790 5790 5789 5788 5787 5787 5786 5785 5784 5783 5782 5781 5780 5779 5777 5776 5775 5773 5772 5770 5769 5767 5766 5765 5763 5762 5760 5759 5757 5756 5754 5752 5751 5749 5747 5745 5744 5742 5740 5739 5739 5738 5735 5732 5731 5730 5729 5728 5726 5725 5723 5722 5721 5720 5718 5717 5716 5715
5790 5791 5792 5792 5793 5793 5794 5795 5795 5796 5796 5796 5796 5797 5797 5797 5796 5796 5796 5795 5795 5795 5795 5794 5794 5793 5792 5792 5791 5791 5790 5789 5788 5787 5787 5786 5785 5784 5783 5782 5781 5780 5778 5777 5775 5774 5772 5771 5769 5768 5766 5765 5763 5762 5760 5759 5757 5756 5754 5753 5751 5749 5747 5746 5745 5743 5741 5740 5738 5736 5736 5736 5733 5730 5729 5728 5727 5726 5724 5722 5721 5720 5719 5717 5716 5715 5713 5712
5791 5791 5792 5792 5793 5793 5794 5795 5795 5796 5796 5796 5796 5796 5796 5796 5796 5796 5795 5795 5795 5794 5794 5793 5793 5792 5792 5791 5790 5790 5789 5788 5788 5787 5786 5785 5784 5783 5781 5780 5779 5778 5776 5775 5773 5772 5770 5768 5767 5765 5763 5762 5760 5759 5757 5756 5755 5753 5752 5750 5749 5747 5745 5744 5743 5741 5740 5738 5737 5735 5735 5734 5731 5729 5728 5727 5726 5725 5723 5720 5719 5718 5716 5715 5714 5712 5711 5709
5792 5792 5792 5793 5793 5793 5794 5795 5795 5796 5796 5796 5796 5796 5796 5796 5795 5795 5795 5795 5794 5794 5793 5792 5792 5791 5791 5790 5789 5789 5788 5787 5786 5785 5784 5783 5782 5781 5780 5778 5777 5776 5774 5773 5771 5769 5768 5766 5764 5762 5760 5759 5757 5756 5755 5753 5752 5751 5750 5748 5747 5746 5744 5743 5741 5740 5739 5738 5736 5734 5734 5732 5730 5728 5726 5726 5725 5723 5721 5719 5717 5716 5714 5713 5711 5709 5707 5706
5792 5792 5793 5793 5793 5794 5794 5795 5795 5796 5796 5796 5796 5796 5796 5795 5795 5795 5795 5794 5794 5793 5792 5792 5791 5791 5790 5789 5788 5788 5787 5786 5785 5784 5783 5782 5780 5779 5778 5777 5775 5774 5772 5771 5769 5767 5765 5763 5762 5760 5758 5757 5755 5754 5753 5752 5751 5750 5749 5747 5746 5745 5743 5742 5740 5739 5738 5736 5735 5733 5732 5731 5729 5727 5724 5724 5723 5721 5719 5717 5715 5713 5711 5709 5707 5706 5704 5702
5793 5793 5793 5793 5793 5794 5794 5795 5795 5795 5796 5796 5796 5795 5795 5795 5795 5795 5794 5794 5793 5792 5792 5791 5790 5790 5789 5788 5787 5787 5786 5785 5784 5783 5782 5780 5779 5778 5776 5775 5773 5772 5770 5769 5767 5765 5763 5762 5760 5759 5757 5756 5755 5754 5752 5751 5750 5749 5748 5746 5745 5744 5742 5741 5739 5738 5736 5734 5733 5731 5729 5729 5727 5724 5722 5720 5719 5717 5716 5714 5712 5710 5708 5706 5704 5702 5700 5699
5793 5793 5793 5793 5794 5794 5794 5794 5795 5795 5796 5796 5795 5795 5795 5795 5795 5794 5794 5793 5792 5792 5791 5790 5790 5789 5789 5788 5787 5786 5785 5784 5783 5782 5781 5779 5778 5776 5775 5773 5772 5770 5769 5767 5766 5764 5762 5760 5759 5758 5756 5755 5754 5753 5752 5751 5749 5748 5747 5745 5744 5742 5741 5739 5737 5736 5735 5732 5731 5728 5726 5725 5724 5722 5719 5717 5715 5713 5712 5710 5708 5706 5704 5702 5701 5699 5697 5695
5792 5793 5793 5793 5793 5794 5794 5794 5795 5795 5795 5795 5795 5795 5795 5794 5794 5793 5793 5792 5791 5791 5790 5790 5789 5788 5788 5787 5786 5785 5784 5783 5782 5781 5779 5778 5776 5775 5773 5772 5770 5769 5767 5766 5764 5762 5761 5759 5758 5757 5756 5755 5754 5753 5751 5750 5748 5747 5745 5744 5742 5741 5739 5737 5735 5734 5732 5730 5728 5726 5723 5722 5719 5718 5716 5713 5711 5710 5707 5706 5704 5703 5701 5699 5697 5695 5693 5691
5793 5793 5793 5793 5793 5793 5794 5794 5795 5795 5795 5795 5795 5794 5794 5794 5793 5793 5792 5791 5791 5790 5790 5789 5788 5788 5787 5786 5785 5784 5784 5783 5781 5780 5778 5777 5775 5773 5772 5770 5769 5767 5766 5764 5763 5762 5760 5759 5758 5757 5756 5754 5753 5752 5750 5749 5747 5746 5744 5742 5741 5739 5736 5734 5732 5731 5729 5727 5725 5723 5721 5719 5716 5714 5713 5710 5708 5706 5704 5702 5700 5699 5697 5695 5693 5691 5689 5687
5793 5793 5793 5793 5793 5793 5794 5794 5794 5794 5795 5795 5794 5794 5793 5793 5792 5792 5791 5790 5790 5789 5789 5788 5788 5787 5786 5786 5785 5784 5783 5781 5780 5778 5777 5775 5774 5772 5771 5769 5767 5766 5764 5763 5762 5761 5760 5758 5757 5756 5755 5753 5752 5750 5749 5747 5746 5744 5742 5740 5738 5736 5734 5732 5730 5728 5726 5724 5723 5721 5719 5717 5713 5711 5709 5707 5705 5703 5700 5699 5697 5695 5693 5691 5689 5687 5686 5684
5793 5793 5793 5793 5793 5793 5793 5793 5794 5794 5795 5794 5794 5793 5793 5792 5792 5791 5790 5790 5789 5789 5788 5787 5787 5786 5786 5785 5784 5783 5782 5780 5779 5777 5775 5774 5772 5771 5769 5768 5766 5765 5764 5763 5761 5760 5759 5757 5756 5755 5753 5752 5750 5749 5747 5746 5744 5742 5740 5738 5736 5734 5733 5731 5729 5727 5724 5722 5720 5719 5718 5715 5711 5709 5707 5704 5702 5700 5698 5696 5693 5692 5690 5688 5686 5684 5682 5680
5793 5793 5793 5793 5793 5793 5793 5793 5794 5794 5794 5794 5793 5793 5792 5792 5791 5790 5789 5789 5788 5788 5787 5787 5786 5786 5785 5784 5783 5782 5780 5779 5777 5776 5774 5772 5771 5769 5768 5767 5766 5764 5763 5762 5760 5759 5758 5756 5755 5754 5752 5751 5749 5747 5746 5744 5742 5740 5738 5736 5734 5732 5731 5729 5727 5725 5723 5721 5718 5717 5716 5714 5709 5706 5705 5702 5699 5697 5695 5693 5691 5689 5687 5685 5683 5681 5679 5677
5793 5794 5793 5793 5793 5793 5793 5793 5793 5794 5793 5793 5792 5792 5791 5790 5790 5789 5788 5788 5787 5787 5787 5786 5786 5785 5784 5783 5782 5780 5779 5777 5776 5774 5773 5771 5770 5769 5767 5766 5765 5764 5762 5761 5760 5758 5757 5756 5754 5753 5751 5750 5748 5746 5744 5742 5740 5738 5736 5735 5733 5731 5729 5727 5725 5723 5721 5719 5717 5714 5713 5713 5709 5704 5702 5700 5697 5695 5693 5691 5688 5686 5684 5682 5679 5677 5675 5673
5793 5793 5793 5793 5793 5793 5793 5793 5793 5793 5792 5792 5791 5791 5790 5789 5789 5788 5788 5787 5787 5786 5786 5786 5785 5784 5783 5782 5781 5779 5778 5776 5775 5773 5772 5771 5769 5768 5767 5765 5764 5763 5761 5760 5759 5758 5756 5755 5753 5752 5750 5749 5747 5745 5743 5741 5739 5737 5735 5733 5731 5729 5728 5725 5723 5720 5719 5717 5715 5712 5709 5709 5708 5702 5698 5697 5695 5693 5691 5688 5686 5683 5681 5678 5676 5674 5672 5670
5793 5793 5793 5792 5792 5792 5792 5792 5792 5792 5791 5791 5791 5790 5789 5789 5788 5788 5787 5787 5786 5786 5785 5785 5784 5783 5782 5781 5780 5778 5777 5775 5774 5772 5771 5770 5769 5767 5766 5765 5763 5762 5761 5759 5758 5757 5755 5754 5752 5751 5749 5748 5746 5744 5742 5740 5738 5736 5734 5732 5729 5727 5725 5723 5721 5718 5716 5714 5712 5710 5707 5705 5705 5701 5695 5693 5691 5690 5688 5685 5682 5680 5677 5675 5673 5671 5669 5667
5793 5793 5792 5792 5792 5792 5791 5791 5791 5791 5790 5790 5790 5789 5788 5788 5787 5787 5786 5786 5786 5785 5785 5784 5783 5782 5781 5780 5779 5777 5776 5774 5773 5771 5770 5769 5768 5767 5766 5764 5763 5761 5760 5759 5758 5756 5755 5753 5751 5750 5748 5746 5744 5743 5741 5739 5737 5734 5732 5729 5727 5725 5723 5720 5718 5715 5713 5711 5709 5707 5704 5702 5702 5699 5693 5690 5688 5687 5686 5682 5679 5676 5673 5671 5668 5666 5665 5663
5793 5792 5792 5792 5791 5791 5790 5790 5790 5790 5789 5789 5788 5788 5788 5787 5786 5786 5786 5786 5785 5784 5784 5783 5782 5781 5780 5779 5777 5776 5775 5773 5772 5771 5769 5768 5767 5766 5765 5763 5762 5760 5759 5758 5757 5755 5754 5752 5750 5749 5747 5745 5743 5741 5739 5737 5735 5732 5729 5727 5724 5722 5720 5717 5715 5712 5709 5708 5706 5704 5701 5698 5698 5697 5691 5687 5685 5683 5681 5678 5675 5672 5669 5666 5663 5661 5659 5658
5792 5791 5791 5791 5790 5790 5790 5789 5789 5789 5788 5788 5787 5787 5786 5786 5786 5785 5785 5785 5784 5784 5783 5782 5781 5780 5779 5778 5776 5775 5774 5772 5771 5770 5769 5767 5766 5765 5764 5762 5761 5759 5758 5757 5755 5754 5752 5751 5749 5747 5745 5743 5741 5739 5737 5735 5732 5730 5727 5724 5722 5719 5716 5714 5712 5709 5706 5704 5701 5699 5697 5694 5694 5693 5687 5684 5682 5680 5677 5674 5671 5668 5665 5662 5659 5656 5654 5653
5791 5790 5790 5790 5789 5789 5789 5788 5788 5788 5788 5787 5787 5786 5785 5785 5785 5785 5784 5784 5783 5783 5782 5781 5780 5779 5778 5777 5775 5774 5773 5771 5770 5769 5768 5767 5766 5764 5763 5762 5760 5759 5757 5756 5755 5753 5751 5750 5748 5746 5744 5742 5739 5737 5735 5732 5729 5727 5724 5721 5718 5715 5712 5710 5708 5705 5702 5699 5696 5694 5692 5689 5689 5688 5683 5680 5679 5676 5673 5670 5667 5664 5661 5658 5654 5651 5649 5647
5790 5790 5789 5789 5789 5788 5788 5787 5787 5787 5786 5786 5785 5785 5784 5784 5784 5784 5783 5783 5782 5782 5781 5780 5779 5778 5777 5776 5774 5773 5772 5771 5770 5768 5767 5766 5765 5764 5762 5761 5760 5758 5757 5756 5754 5753 5751 5748 5746 5744 5742 5740 5737 5735 5732 5729 5727 5724 5721 5717 5714 5711 5707 5705 5703 5700 5697 5694 5691 5689 5687 5685 5685 5683 5678 5675 5673 5671 5668 5666 5663 5659 5656 5652 5649 5647 5644 5642
5789 5789 5789 5788 5788 5787 5787 5786 5786 5785 5785 5785 5784 5784 5783 5783 5783 5783 5782 5782 5781 5781 5780 5779 5778 5777 5776 5774 5773 5772 5771 5770 5769 5768 5766 5765 5764 5763 5761 5760 5759 5757 5756 5754 5753 5752 5750 5748 5745 5743 5740 5738 5735 5732 5729 5726 5724 5721 5718 5715 5711 5708 5703 5700 5698 5695 5693 5690 5686 5685 5682 5680 5680 5677 5673 5671 5668 5665 5663 5660 5657 5654 5650 5647 5644 5641 5639 5636
5789 5788 5788 5787 5787 5786 5786 5785 5785 5784 5784 5783 5783 5782 5782 5782 5782 5781 5781 5781 5780 5779 5778 5777 5776 5775 5774 5773 5772 5771 5770 5769 5768 5766 5765 5764 5763 5761 5760 5758 5757 5755 5754 5752 5750 5749 5748 5746 5744 5741 5738 5735 5732 5730 5727 5724 5721 5718 5716 5712 5709 5706 5701 5697 5695 5691 5689 5686 5682 5681 5678 5676 5675 5671 5668 5666 5662 5659 5656 5653 5649 5646 5643 5640 5638 5635 5633 5630
5787 5787 5787 5786 5786 5785 5785 5784 5783 5783 5782 5782 5782 5781 5781 5781 5781 5780 5780 5779 5779 5778 5777 5776 5775 5774 5773 5772 5771 5770 5769 5768 5766 5765 5764 5763 5761 5760 5758 5757 5755 5753 5751 5750 5747 5745 5745 5743 5741 5738 5736 5733 5730 5727 5724 5721 5717 5715 5712 5709 5706 5703 5699 5695 5692 5688 5685 5682 5679 5677 5673 5671 5670 5667 5663 5660 5656 5653 5649 5645 5642 5639 5637 5634 5631 5629 5627 5624
5786 5786 5786 5785 5785 5784 5783 5783 5782 5782 5781 5781 5781 5780 5780 5780 5779 5779 5778 5778 5777 5776 5775 5775 5774 5773 5772 5771 5769 5768 5767 5766 5765 5764 5762 5761 5760 5758 5757 5755 5753 5751 5749 5747 5745 5742 5740 5740 5738 5735 5733 5730 5727 5724 5721 5718 5714 5711 5708 5705 5702 5699 5695 5691 5687 5684 5681 5677 5674 5673 5670 5667 5665 5662 5658 5654 5650 5647 5643 5639 5636 5633 5631 5628 5624 5622 5619 5616
5785 5785 5784 5784 5783 5783 5782 5781 5781 5780 5780 5780 5779 5779 5778 5778 5778 5777 5777 5776 5776 5775 5774 5773 5772 5771 5770 5769 5768 5767 5766 5765 5764 5762 5761 5759 5758 5757 5755 5753 5751 5749 5747 5745 5742 5739 5736 5735 5735 5732 5729 5727 5724 5720 5718 5714 5710 5706 5703 5701 5697 5694 5690 5686 5681 5679 5676 5671 5668 5667 5666 5663 5660 5657 5654 5648 5643 5639 5636 5634 5631 5627 5624 5621 5618 5614 5611 5608
5784 5783 5783 5782 5781 5781 5780 5780 5779 5779 5779 5778 5778 5777 5777 5777 5776 5776 5775 5775 5774 5773 5772 5771 5771 5770 5769 5768 5767 5766 5765 5763 5762 5761 5759 5758 5756 5754 5753 5751 5749 5747 5745 5743 5740 5737 5733 5730 5730 5729 5725 5722 5719 5716 5713 5710 5706 5702 5699 5696 5692 5688 5685 5681 5676 5672 5669 5665 5661 5661 5661 5659 5655 5653 5649 5643 5638 5634 5630 5628 5625 5621 5618 5614 5611 5607 5604 5601
5782 5781 5781 5780 5779 5779 5778 5778 5777 5777 5777 5777 5776 5776 5775 5775 5775 5774 5774 5773 5772 5771 5771 5770 5769 5768 5767 5766 5765 5764 5763 5762 5760 5759 5757 5756 5754 5752 5751 5749 5747 5745 5743 5740 5737 5734 5730 5726 5725 5725 5722 5718 5714 5711 5708 5705 5701 5697 5694 5691 5687 5683 5680 5676 5672 5667 5664 5659 5655 5653 5654 5653 5650 5647 5643 5637 5632 5629 5625 5622 5618 5614 5611 5608 5604 5600 5596 5592
5780 5779 5778 5778 5777 5777 5777 5776 5776 5775 5775 5775 5774 5774 5774 5773 5773 5773 5772 5771 5770 5770 5769 5768 5767 5766 5765 5764 5763 5762 5761 5760 5758 5757 5755 5753 5751 5750 5748 5746 5744 5742 5740 5737 5734 5731 5727 5723 5721 5720 5718 5714 5710 5707 5703 5700 5696 5692 5689 5686 5682 5678 5674 5671 5667 5663 5659 5654 5650 5646 5644 5645 5644 5640 5635 5630 5626 5623 5620 5616 5613 5609 5605 5601 5597 5593 5588 5584
5778 5777 5776 5776 5775 5775 5775 5774 5774 5773 5773 5773 5772 5772 5772 5772 5771 5771 5770 5769 5769 5768 5767 5766 5765 5765 5764 5763 5761 5760 5759 5758 5756 5755 5753 5751 5749 5747 5745 5743 5741 5739 5736 5734 5731 5727 5724 5720 5717 5716 5714 5710 5707 5703 5699 5695 5691 5687 5684 5681 5677 5673 5668 5664 5661 5659 5655 5648 5646 5641 5635 5639 5640 5633 5627 5623 5620 5617 5613 5610 5607 5603 5599 5594 5590 5585 5580 5576
5775 5774 5774 5774 5773 5773 5772 5772 5772 5771 5771 5771 5770 5770 5770 5770 5769 5769 5768 5768 5767 5766 5765 5764 5764 5763 5762 5761 5759 5758 5757 5756 5754 5753 5751 5749 5747 5745 5743 5740 5738 5735 5733 5730 5727 5724 5720 5716 5714 5712 5710 5706 5703 5699 5695 5691 5686 5683 5680 5676 5672 5667 5663 5658 5654 5653 5650 5644 5641 5635 5628 5632 5634 5626 5620 5617 5613 5610 5606 5603 5599 5595 5590 5586 5582 5578 5574 5569
5771 5771 5771 5771 5771 5770 5770 5770 5770 5769 5769 5768 5768 5768 5768 5767 5767 5767 5766 5765 5765 5764 5763 5762 5761 5761 5760 5758 5757 5756 5754 5753 5752 5751 5749 5747 5744 5742 5740 5738 5735 5732 5729 5726 5723 5720 5715 5712 5709 5707 5705 5703 5700 5696 5691 5686 5681 5677 5675 5671 5666 5662 5658 5653 5649 5646 5643 5640 5636 5628 5623 5626 5625 5618 5615 5611 5606 5603 5598 5594 5591 5587 5583 5579 5574 5571 5566 5562
5768 5768 5768 5768 5768 5768 5768 5768 5767 5767 5767 5766 5766 5766 5766 5765 5765 5765 5764 5763 5763 5762 5761 5760 5759 5758 5757 5756 5755 5753 5751 5749 5748 5748 5746 5744 5741 5739 5737 5734 5731 5729 5726 5722 5719 5716 5711 5708 5704 5701 5698 5696 5695 5693 5688 5683 5678 5673 5670 5665 5661 5657 5652 5648 5644 5639 5636 5636 5631 5622 5619 5622 5618 5610 5608 5605 5601 5597 5592 5586 5582 5578 5574 5571 5566 5562 5557 5552
5765 5765 5765 5765 5765 5765 5765 5765 5765 5765 5764 5764 5764 5764 5763 5763 5763 5763 5762 5761 5761 5760 5759 5758 5757 5756 5755 5754 5752 5751 5749 5746 5745 5744 5743 5740 5738 5736 5733 5730 5728 5725 5722 5718 5715 5711 5707 5704 5701 5696 5691 5688 5687 5685 5682 5678 5674 5670 5667 5662 5657 5652 5647 5643 5639 5634 5630 5628 5626 5619 5615 5616 5614 5606 5601 5598 5594 5591 5587 5581 5576 5571 5566 5561 5556 5551 5546 5540
5762 5762 5762 5762 5763 5763 5763 5763 5763 5762 5762 5762 5762 5762 5761 5761 5761 5760 5760 5759 5758 5758 5757 5756 5755 5753 5752 5751 5750 5748 5746 5744 5742 5741 5739 5737 5734 5732 5729 5726 5723 5720 5717 5714 5710 5707 5703 5700 5697 5693 5687 5683 5681 5678 5673 5669 5667 5664 5661 5657 5652 5646 5641 5637 5633 5629 5624 5620 5620 5618 5610 5606 5608 5603 5596 5592 5587 5582 5578 5574 5569 5564 5558 5552 5546 5540 5534 5529
5760 5760 5760 5760 5760 5760 5760 5760 5760 5760 5760 5759 5760 5759 5759 5759 5758 5758 5758 5757 5756 5755 5754 5753 5752 5750 5750 5748 5747 5745 5743 5741 5739 5737 5736 5733 5731 5728 5725 5722 5719 5716 5713 5709 5706 5702 5698 5695 5693 5688 5683 5679 5676 5673 5667 5662 5660 5658 5655 5652 5647 5640 5636 5632 5627 5623 5619 5612 5612 5614 5606 5598 5598 5594 5588 5585 5581 5575 5570 5564 5558 5553 5548 5541 5536 5530 5524 5518
5759 5759 5759 5758 5758 5758 5758 5758 5758 5758 5757 5757 5757 5757 5757 5756 5756 5755 5755 5754 5754 5752 5752 5751 5749 5748 5747 5745 5744 5742 5740 5737 5736 5734 5732 5729 5727 5724 5721 5718 5715 5712 5708 5704 5701 5697 5692 5690 5687 5683 5678 5674 5671 5667 5662 5657 5654 5651 5649 5646 5641 5636 5631 5627 5623 5618 5613 5607 5604 5605 5601 5595 5590 5585 5580 5576 5571 5567 5561 5554 5548 5542 5537 5531 5525 5519 5514 5507
5757 5757 5757 5756 5756 5756 5756 5756 5755 5755 5755 5755 5755 5755 5754 5754 5753 5753 5752 5752 5751 5750 5749 5748 5746 5745 5744 5742 5741 5739 5736 5733 5732 5730 5728 5725 5723 5720 5717 5714 5710 5707 5703 5700 5696 5692 5687 5684 5681 5677 5672 5670 5667 5662 5657 5652 5648 5647 5644 5640 5635 5631 5626 5621 5618 5614 5608 5603 5599 5595 5592 5589 5584 5578 5573 5568 5562 5557 5551 5545 5539 5533 5527 5522 5516 5509 5502 5495
5755 5755 5755 5754 5754 5754 5754 5753 5753 5753 5753 5753 5752 5752 5752 5751 5751 5750 5750 5749 5748 5747 5746 5745 5744 5742 5741 5739 5738 5736 5733 5730 5728 5726 5723 5720 5718 5715 5711 5709 5705 5702 5698 5694 5690 5686 5681 5677 5674 5670 5666 5665 5662 5657 5651 5647 5643 5642 5640 5635 5630 5625 5621 5616 5612 5608 5602 5598 5594 5588 5584 5582 5577 5570 5565 5560 5554 5549 5543 5536 5531 5526 5519 5511 5505 5498 5491 5484
5753 5753 5753 5752 5752 5752 5751 5751 5750 5750 5750 5750 5750 5750 5749 5749 5748 5748 5747 5746 5746 5745 5743 5742 5741 5739 5738 5736 5734 5732 5729 5727 5724 5722 5719 5716 5713 5710 5707 5703 5700 5696 5693 5688 5684 5680 5675 5671 5668 5663 5659 5659 5657 5651 5646 5641 5637 5636 5634 5629 5624 5620 5615 5610 5606 5602 5597 5592 5588 5583 5577 5574 5569 5563 5559 5554 5548 5542 5536 5529 5523 5518 5511 5502 5494 5488 5481 5473
5751 5750 5750 5750 5750 5749 5749 5748 5748 5748 5747 5747 5747 5747 5746 5746 5745 5745 5744 5744 5743 5742 5740 5739 5737 5736 5735 5733 5731 5728 5726 5723 5720 5718 5715 5712 5709 5706 5702 5698 5695 5691 5687 5683 5678 5674 5670 5665 5661 5657 5653 5652 5650 5645 5640 5635 5631 5630 5627 5623 5618 5614 5609 5604 5600 5595 5591 5586 5581 5577 5571 5566 5561 5556 5551 5548 5543 5537 5530 5523 5515 5508 5503 5495 5487 5478 5470 5462